This demonstration page uses our WeatherBlox Daily Observations layout. Learn more.

Left ArrowRight Arrow

34.02893, -84.19858

Hourly Observations for October 1, 2022

Temp ( °F °C ) Dew Point ( °F °C ) Humidity (%) Winds ( mph kmh ) Pressure ( in mb ) Visibility ( mi km ) Precip ( " mm )
12:53 am 00:53 Clear 59 15 43 6.1 55 55 NNW 9 15 29.80 1009 10 16 0.00 0.00
1:53 am 01:53 Clear 58 14.4 43 6.1 57 57 NW 8 13 29.80 1009 10 16 0.00 0.00
2:53 am 02:53 Clear 57 13.9 43 6.1 59 59 NNW 7 11 29.79 1009 10 16 0.00 0.00
3:53 am 03:53 Clear 56 13.3 44 6.7 64 64 NW 6 9 29.78 1009 10 16 0.00 0.00
4:53 am 04:53 Partly Cloudy 56 13.3 44 6.7 64 64 NW 7 11 29.77 1008 10 16 0.00 0.00
5:53 am 05:53 Clear 55 12.8 43 6.1 64 64 NW 6 9 29.78 1008 10 16 0.00 0.00
6:53 am 06:53 Clear 54 12.2 43 6.1 66 66 NW 8 13 29.79 1009 10 16 0.00 0.00
7:53 am 07:53 Sunny 54 12.2 44 6.7 69 69 WNW 8 13 29.81 1010 10 16 0.00 0.00
8:53 am 08:53 Sunny 53 11.7 44 6.7 71 71 WNW 7 11 29.84 1011 10 16 0.00 0.00
9:53 am 09:53 Sunny 55 12.8 45 7.2 69 69 WNW 10 17 29.85 1011 10 16 0.00 0.00
10:53 am 10:53 Sunny 62 16.7 46 7.8 56 56 NW 10 17 29.86 1011 10 16 0.00 0.00
11:53 am 11:53 Sunny 65 18.3 48 8.9 54 54 WNW 10 17 29.85 1011 10 16 0.00 0.00
12:53 pm 12:53 Sunny 70 21.1 50 10 49 49 NW 14 22 29.84 1011 10 16 0.00 0.00
1:53 pm 13:53 Sunny 73 22.8 52 11.1 48 48 N 15 24 29.83 1010 10 16 0.00 0.00
2:53 pm 14:53 Sunny 74 23.3 53 11.7 48 48 NNW 13 20 29.83 1010 10 16 0.00 0.00
3:53 pm 15:53 Sunny 75 23.9 54 12.2 48 48 N 17 28 29.83 1010 10 16 0.00 0.00
4:53 pm 16:53 Mostly Sunny 73 22.8 53 11.7 50 50 NNW 23 37 29.85 1011 10 16 0.00 0.00
5:53 pm 17:53 Mostly Cloudy 70 21.1 53 11.7 55 55 NNW 14 22 29.87 1012 10 16 0.00 0.00
6:53 pm 18:53 Cloudy 68 20 52 11.1 57 57 N 15 24 29.90 1013 10 16 0.00 0.00
7:53 pm 19:53 Mostly Clear 63 17.2 52 11.1 67 67 N 10 17 29.92 1013 10 16 0.00 0.00
8:53 pm 20:53 Clear 62 16.7 51 10.6 67 67 N 9 15 29.94 1014 10 16 0.00 0.00
9:53 pm 21:53 Clear 59 15 51 10.6 75 75 N 5 7 29.95 1014 10 16 0.00 0.00
10:53 pm 22:53 Clear 59 15 51 10.6 75 75 NW 12 19 29.95 1014 10 16 0.00 0.00
11:53 pm 23:53 Clear 58 14.4 51 10.6 78 78 NNW 8 13 29.95 1014 10 16 0.00 0.00

Powered by AerisWeather